Terminal Aerodrome Forecast
Issued by NWS Wilmington, OH

Current Version | Previous Version | Graphics & Text | Print | Product List | Glossary On
Versions: 1 2 3 4 5 6 7 8 9 10 11 12 13 14 15 16 17 18 19 20 21
000
FTUS41 KILN 191700
TAFILN
TAF
KILN 191726Z 1918/2018 24006KT P6SM OVC250
     FM192300 22004KT P6SM SCT250
     FM201000 20006KT P6SM BKN100
     FM201400 22012G20KT P6SM BKN080=

USA.gov is the U.S. government's official web portal to all federal, state and local government web resources and services.